This is the latest recevied weather packets stored in our database for station/object W4JCW. If no packets are shown the sender has not sent any weather packets the latest 10 day(s).
| Time | Temp. | Humidity | Pressure | Rain* | Wind** | Luminosity | Snow |
|---|---|---|---|---|---|---|---|
| 1777948856 | 17.78° C | 61% | 1015 hPa | 0 mm | - | 0 W/m² | - |
| 1777948553 | 17.78° C | 61% | 1014.9 hPa | 0 mm | - | 0 W/m² | - |
| 1777948251 | 18.33° C | 60% | 1014.9 hPa | 0 mm | - | 0 W/m² | - |
| 1777947948 | 18.33° C | 59% | 1014.8 hPa | 0 mm | - | 0 W/m² | - |
| 1777947646 | 18.33° C | 59% | 1014.9 hPa | 0 mm | - | 0 W/m² | - |
| 1777947342 | 18.89° C | 58% | 1014.8 hPa | 0 mm | - | 0 W/m² | - |
| 1777947039 | 18.89° C | 58% | 1014.7 hPa | 0 mm | - | 0 W/m² | - |
| 1777946738 | 18.89° C | 58% | 1014.6 hPa | 0 mm | - | 0 W/m² | - |
| 1777946436 | 18.89° C | 58% | 1014.4 hPa | 0 mm | - | 0 W/m² | - |
| 1777946133 | 18.89° C | 56% | 1014.5 hPa | 0 mm | - | 0 W/m² | - |
| 1777945830 | 18.89° C | 55% | 1014.3 hPa | 0 mm | - | 0 W/m² | - |
| 1777945526 | 18.89° C | 55% | 1014.4 hPa | 0 mm | - | 0 W/m² | - |
| 1777945224 | 19.44° C | 54% | 1014.4 hPa | 0 mm | - | 0 W/m² | - |
| 1777944921 | 19.44° C | 54% | 1014.4 hPa | 0 mm | - | 0 W/m² | - |
| 1777944618 | 19.44° C | 52% | 1014.1 hPa | 0 mm | - | 0 W/m² | - |
| 1777944316 | 19.44° C | 52% | 1013.9 hPa | 0 mm | - | 0 W/m² | - |
| 1777944013 | 18.89° C | 52% | 1014.1 hPa | 0 mm | - | 0 W/m² | - |
| 1777943708 | 18.89° C | 51% | 1014.1 hPa | 0 mm | - | 0 W/m² | - |
| 1777943406 | 18.89° C | 51% | 1013.9 hPa | 0 mm | - | 0 W/m² | - |
| 1777943101 | 19.44° C | 50% | 1013.9 hPa | 0 mm | - | 0 W/m² | - |
| 1777942797 | 19.44° C | 49% | 1013.7 hPa | 0 mm | - | 0 W/m² | - |
| 1777942494 | 20° C | 49% | 1013.5 hPa | 0 mm | - | 0 W/m² | - |
| 1777942192 | 20° C | 48% | 1013.7 hPa | 0 mm | - | 0 W/m² | - |
| 1777941889 | 20° C | 47% | 1013.4 hPa | 0 mm | - | 0 W/m² | - |
| 1777941585 | 20.56° C | 47% | 1013.6 hPa | 0 mm | - | 0 W/m² | - |
* Rain latest hour (hover to see other rain measurements)
** Current wind speed in m/s (hover to see current wind gust speed)